Denton, TX

8:43 PM CST on February 11, 2016 (GMT -0600)
Denton Municipal

Weather History for KDTO - May, 2014

Change the Weather History Date:

Friday, May 9, 2014

  Actual Average Record
Temperature  
Mean Temperature 76 °F -  
Max Temperature 87 °F 80 °F 95 °F (2006)
Min Temperature 64 °F 57 °F 48 °F (1997)
Cooling Degree Days 10    
Growing Degree Days 26 (Base 50)    
Moisture  
Dew Point 60 °F    
Average Humidity 67    
Maximum Humidity 96    
Minimum Humidity 28    
Precipitation  
Precipitation 0.01 in - - ()
Sea Level Pressure  
Sea Level Pressure 29.83 in    
Wind  
Wind Speed 8 mph (South)    
Max Wind Speed 12 mph    
Max Gust Speed -    
Visibility 9 miles    
Events      
Averages and records for this station are not official NWS values.
T = Trace of Precipitation, MM = Missing Value Source: NWS Daily Summary

Daily Weather History Graph

Daily Weather History Graph

Search for Another Location

Airport or City:

Trip Planner

Search our weather history database for the weather conditions in past years. The results will help you decide how hot, cold, wet, or windy it might be!

Date:

Astronomy

May. 09, 2014 Rise Set
Actual Time 6:33 AM CDT 8:17 PM CDT
Civil Twilight 6:06 AM CDT 8:44 PM CDT
Nautical Twilight 5:34 AM CDT 9:16 PM CDT
Astronomical Twilight 5:00 AM CDT 9:51 PM CDT
Moon 3:31 PM CDT (5/9) 3:19 AM CDT (5/9)
Length of Visible Light 14h 37m
Length of Day
13h 43m
Waxing Gibbous, 74% of the Moon is Illuminated
May 9
Waxing Gibbous
May 14
Full
May 21
Last Quarter
May 28
New
Jun 5
First Quarter

Hourly Weather History & Observations

Time (CDT) Temp. Heat Index Dew Point Humidity Pressure Visibility Wind Dir Wind Speed Gust Speed Precip Events Conditions
12:53 AM 64.0 °F - 63.0 °F 96% 29.82 in 10.0 mi SSE 11.5 mph - N/A   Clear
1:53 AM 64.9 °F - 63.0 °F 93% 29.81 in 10.0 mi SSE 9.2 mph - N/A   Clear
2:53 AM 66.0 °F - 64.9 °F 96% 29.81 in 10.0 mi South 9.2 mph - N/A   Scattered Clouds
3:04 AM 66.2 °F - 64.4 °F 94% 29.82 in 10.0 mi South 9.2 mph - 0.01 in   Mostly Cloudy
3:23 AM 68.0 °F - 66.2 °F 94% 29.83 in 9.0 mi South 10.4 mph - 0.01 in   Overcast
3:53 AM 68.0 °F - 66.9 °F 96% 29.82 in 7.0 mi SSW 10.4 mph - 0.01 in   Overcast
4:53 AM 69.1 °F - 68.0 °F 96% 29.83 in 6.0 mi Calm Calm - N/A   Overcast
5:53 AM 70.0 °F - 68.0 °F 93% 29.84 in 7.0 mi SW 9.2 mph - N/A   Overcast
6:42 AM 69.8 °F - 66.2 °F 88% 29.85 in 5.0 mi SSW 9.2 mph - N/A   Scattered Clouds
6:53 AM 69.1 °F - 66.9 °F 93% 29.84 in 4.0 mi SW 5.8 mph - N/A   Clear
7:53 AM 70.0 °F - 66.9 °F 90% 29.86 in 5.0 mi SW 4.6 mph - N/A   Clear
8:53 AM 72.0 °F - 64.9 °F 78% 29.88 in 10.0 mi Calm Calm - N/A   Clear
10:53 AM 79.0 °F - 55.0 °F 44% 29.89 in 10.0 mi Variable 4.6 mph - N/A   Clear
11:53 AM 80.1 °F 80.0 °F 54.0 °F 40% 29.89 in 10.0 mi Calm Calm - N/A   Clear
12:53 PM 82.9 °F 81.9 °F 54.0 °F 37% 29.88 in 10.0 mi West 8.1 mph - N/A   Clear
1:53 PM 84.0 °F - 50.0 °F 31% 29.86 in 10.0 mi SW 5.8 mph - N/A   Clear
2:53 PM 86.0 °F 84.0 °F 53.1 °F 32% 29.83 in 10.0 mi WSW 9.2 mph - N/A   Clear
3:53 PM 86.0 °F - 50.0 °F 29% 29.81 in 10.0 mi Calm Calm - N/A   Clear
4:53 PM 87.1 °F - 50.0 °F 28% 29.78 in 10.0 mi Calm Calm - N/A   Clear
5:53 PM 84.0 °F 82.5 °F 53.1 °F 34% 29.78 in 10.0 mi South 3.5 mph - N/A   Clear
6:53 PM 82.9 °F 82.1 °F 55.9 °F 39% 29.76 in 10.0 mi SSE 9.2 mph - N/A   Clear
7:53 PM 78.1 °F - 57.9 °F 50% 29.77 in 10.0 mi SSE 8.1 mph - N/A   Clear
8:53 PM 75.9 °F - 57.0 °F 52% 29.79 in 10.0 mi SE 4.6 mph - N/A   Clear
9:53 PM 71.1 °F - 60.1 °F 68% 29.82 in 10.0 mi SSE 8.1 mph - N/A   Clear
10:53 PM 72.0 °F - 64.9 °F 78% 29.86 in 10.0 mi SSE 9.2 mph - N/A   Clear
11:53 PM 70.0 °F - 61.0 °F 73% 29.86 in 10.0 mi SSE 9.2 mph - N/A   Clear